Regional Weather Roundup
Issued by NWS Lake Charles, LA

Home | Current Version | Previous Version | Text Only | Print | Product List | Glossary On
Versions: 1 2 3 4 5 6 7 8 9 10 11 12 13 14 15 16 17 18 19 20 21 22 23 24 25 26 27 28 29 30 31 32 33 34 35 36 37 38 39 40 41 42 43 44 45 46 47 48 49 50
000
ASUS44 KLCH 071110
RWRLCH
RWRLCH
REGIONAL WEATHER ROUNDUP
NATIONAL WEATHER SERVICE LAKE CHARLES LA
600 AM CDT TUE JUL 07 2015

Note: "fair" indicates few or no clouds below 12,000 feet with no
significant weather and/or obstructions to visibility.


ACROSS SOUTHEAST TEXAS

CITY           SKY/WX    TMP DP  RH WIND       PRES   REMARKS
BEAUMONT       MOCLDY    80  77  90 S6        30.03R
BEAUMONT CITY    N/A     78  76  95 SE3       30.03R
ORANGE         MOSUNNY   79  79 100 CALM      30.04S
JASPER         PTCLDY    78  76  92 S3        30.06R
$$

ACROSS CENTRAL LOUISIANA

CITY           SKY/WX    TMP DP  RH WIND       PRES   REMARKS
LEESVILLE      CLEAR     76  74  95 SE7       30.04R
FULLERTON        N/A     79  75  87 CALM      30.03S
ALEXANDRIA INT CLEAR     76  76 100 SE8       30.04R
ESLER FIELD    CLEAR     77  74  90 SE3       30.06R
DERIDDER       CLOUDY    76  75  96 SE3       30.06R
OAKDALE        CLOUDY    73  72  96 CALM      30.06R FOG
OPELOUSAS        N/A     76  76  97 SE3       30.07R
$$

ACROSS SOUTHWEST AND SOUTH CENTRAL LOUISIANA

CITY           SKY/WX    TMP DP  RH WIND       PRES   REMARKS
SULPHUR        MOSUNNY   79  76  91 CALM      30.04S
LAKE CHARLES   CLEAR     77  75  93 SE5       30.03F
CHENNAULT INT  CLEAR     75  75 100 E6        30.05S
CAMERON PHI    SUNNY     84  77  79 S16G22    30.05F
DEQUINCY         N/A     74  74 100 CALM      30.04R
JENNINGS         N/A     77  76  96 E5        30.05S
LAFAYETTE      PTCLDY    78  76  93 CALM      30.06F
NEW IBERIA     NOT AVBL
ABBEVILLE        N/A     78  77  96 CALM      30.06F
PATTERSON      MOCLDY    79  75  89 SE6       30.10S
SALT POINT       N/A     83  78  85 VRB3      30.07S
$$

SELECTED SITES ACROSS THE REGION

CITY           SKY/WX    TMP DP  RH WIND       PRES   REMARKS
HOUSTON BUSH   CLOUDY    81  78  91 S8        30.01R
HOUSTON HOBBY  MOCLDY    80  78  94 S6        30.00R
GALVESTON      PTCLDY    83  79  88 S14       30.02S
COLLEGE STAT   CLOUDY    79  77  94 S9        30.01R
CONROE         CLOUDY    77  75  93 SE5       30.02R
HUNTSVILLE     CLOUDY    79  76  90 S7        30.03R
LUFKIN         CLOUDY    77  74  90 SE3       30.04R FOG
SHREVEPORT     CLOUDY    76  74  93 S5        30.03R
MONROE         CLEAR     75  75 100 S6        30.06R
NATCHEZ MS     NOT AVBL
BATON ROUGE    CLEAR     76  74  93 CALM      30.09S
N.O. INTL ARPT PTCLDY    80  75  84 S5        30.10S
SLIDELL        CLEAR     75  75 100 CALM      30.10F
$$

MARINE REPORTS

STATION/POSITION TIME  TEMP    WIND        PRES    VSBY  WAVE
                       AIR SEA DIR/SP/G                  HT/PER
                 (UTC) (F)     (DEG/KT/KT) (MB)    (MI)  (FT/S)
BUOY 30 S HIGH I 1050   84 84  160/ 16/ 17 1015.7R         4/ 5
SEA RIM ST PARK  1000   83     170/ 13/ 18 1017.1F
PORT ARTHUR      1000      84  170/  6/  9 1016.9F
SABINE PASS N    1000   83 84  170/  9/ 12 1017.0F
TEXAS POINT      NOT AVBL
CALCASIEU PASS   1000   84 84  190/ 16/ 20   N/A
LK CHARLES BEACH 1000   80 86                N/A
MARSH ISLAND     1000   86     200/ 10/ 15   N/A           0
FRESH WATER LOCK 1000   83 86  160/  9/ 12 1017.8F
AMERADA PASS     1000   83 83  170/  2/  4 1018.7F
$$


USA.gov is the U.S. government's official web portal to all federal, state and local government web resources and services.